Luverne, MN

9:23 AM CST on January 16, 2017 (GMT -0600)
Luverne

Weather History for KLYV - January, 2014

Change the Weather History Date:

Monday, January 20, 2014

  Actual Average (KPQN) Record (KPQN)
Temperature  
Mean Temperature 14 °F -  
Max Temperature 33 °F 21 °F 35 °F (2015)
Min Temperature -5 °F 6 °F -16 °F (2008)
Degree Days  
Heating Degree Days 51    
Moisture  
Dew Point 15 °F    
Average Humidity 80    
Maximum Humidity 93    
Minimum Humidity 60    
Precipitation  
Precipitation 0.00 in - - ()
Sea Level Pressure  
Sea Level Pressure 30.07 in    
Wind  
Wind Speed 12 mph (NNW)    
Max Wind Speed 30 mph    
Max Gust Speed 37 mph    
Visibility 8 miles    
Events Snow    
Averages and records for this station are not official NWS values.
T = Trace of Precipitation, MM = Missing Value Source: NWS Daily Summary

Daily Weather History Graph

Daily Weather History Graph

Search for Another Location

Airport or City:

Trip Planner

Search our weather history database for the weather conditions in past years. The results will help you decide how hot, cold, wet, or windy it might be!

Date:

Astronomy

Jan. 20, 2014 Rise Set
Actual Time 7:52 AM CST 5:20 PM CST
Civil Twilight 7:20 AM CST 5:51 PM CST
Nautical Twilight 6:45 AM CST 6:26 PM CST
Astronomical Twilight 6:11 AM CST 7:00 PM CST
Moon 10:06 PM CST (1/20) 9:43 AM CST (1/20)
Length of Visible Light 10h 30m
Length of Day
9h 28m
Waning Gibbous, 82% of the Moon is Illuminated
Jan 20
Waning Gibbous
Jan 23
Last Quarter
Jan 30
New
Feb 6
First Quarter
Feb 14
Full

Hourly Weather History & Observations

Time (CST) Temp. Windchill Dew Point Humidity Pressure Visibility Wind Dir Wind Speed Gust Speed Precip Events Conditions
12:14 AM 32.0 °F 26.4 °F 26.6 °F 80% 29.79 in 10.0 mi WNW 5.8 mph - N/A   Clear
12:35 AM 32.0 °F 27.5 °F 28.4 °F 87% 29.79 in 10.0 mi WNW 4.6 mph - N/A   Clear
12:54 AM 32.0 °F 24.8 °F 28.4 °F 87% 29.80 in 10.0 mi WNW 8.1 mph - N/A   Clear
1:15 AM 32.0 °F 24.8 °F 28.4 °F 87% 29.80 in 10.0 mi WNW 8.1 mph - N/A   Clear
1:35 AM 32.0 °F 24.8 °F 28.4 °F 87% 29.81 in 10.0 mi WNW 8.1 mph - N/A   Clear
1:54 AM 33.8 °F 28.6 °F 28.4 °F 81% 29.81 in 10.0 mi NW 5.8 mph - N/A   Clear
2:15 AM 33.8 °F 28.6 °F 28.4 °F 81% 29.82 in 10.0 mi NNW 5.8 mph - N/A   Clear
2:35 AM 33.8 °F 27.7 °F 30.2 °F 87% 29.83 in 10.0 mi NNW 6.9 mph - N/A   Mostly Cloudy
2:55 AM 33.8 °F 28.6 °F 28.4 °F 81% 29.84 in 10.0 mi NNW 5.8 mph - N/A   Overcast
3:14 AM 33.8 °F 27.7 °F 28.4 °F 81% 29.85 in 10.0 mi NW 6.9 mph - N/A   Mostly Cloudy
3:35 AM 32.0 °F 24.2 °F 28.4 °F 87% 29.85 in 10.0 mi WNW 9.2 mph - N/A   Clear
3:54 AM 32.0 °F 24.8 °F 28.4 °F 87% 29.85 in 10.0 mi WNW 8.1 mph - N/A   Clear
4:15 AM 32.0 °F 23.6 °F 28.4 °F 87% 29.85 in 10.0 mi WNW 10.4 mph - N/A   Clear
4:35 AM 30.2 °F 20.8 °F 28.4 °F 93% 29.86 in 10.0 mi WNW 11.5 mph - N/A   Clear
4:54 AM 30.2 °F 20.8 °F 26.6 °F 86% 29.86 in 10.0 mi WNW 11.5 mph - N/A   Clear
5:15 AM 32.0 °F 23.0 °F 28.4 °F 87% 29.86 in 10.0 mi WNW 11.5 mph - N/A   Clear
5:34 AM 32.0 °F 22.5 °F 28.4 °F 87% 29.86 in 10.0 mi West 12.7 mph - N/A   Clear
5:55 AM 32.0 °F 22.5 °F 28.4 °F 87% 29.86 in 10.0 mi West 12.7 mph - N/A   Clear
6:15 AM 32.0 °F 21.6 °F 26.6 °F 80% 29.87 in 10.0 mi WNW 15.0 mph - N/A   Clear
6:34 AM 30.2 °F 19.8 °F 26.6 °F 86% 29.87 in 10.0 mi WNW 13.8 mph - N/A   Clear
6:55 AM 30.2 °F 20.2 °F 26.6 °F 86% 29.87 in 10.0 mi WNW 12.7 mph - N/A   Clear
7:15 AM 28.4 °F 18.0 °F 24.8 °F 86% 29.88 in 10.0 mi WNW 12.7 mph - N/A   Clear
7:34 AM 28.4 °F 19.1 °F 24.8 °F 86% 29.88 in 10.0 mi WNW 10.4 mph - N/A   Clear
7:55 AM 30.2 °F 21.9 °F 26.6 °F 86% 29.88 in 10.0 mi WNW 9.2 mph - N/A   Mostly Cloudy
8:15 AM 30.2 °F 22.6 °F 26.6 °F 86% 29.88 in 10.0 mi WNW 8.1 mph - N/A   Overcast
8:34 AM 32.0 °F 23.6 °F 28.4 °F 87% 29.89 in 10.0 mi West 10.4 mph - N/A   Overcast
8:55 AM 32.0 °F 22.5 °F 28.4 °F 87% 29.89 in 10.0 mi WNW 12.7 mph - N/A   Mostly Cloudy
9:15 AM 32.0 °F 22.5 °F 28.4 °F 87% 29.90 in 10.0 mi WNW 12.7 mph - N/A   Mostly Cloudy
9:34 AM 32.0 °F 21.2 °F 30.2 °F 93% 29.91 in 10.0 mi WNW 16.1 mph - N/A   Overcast
9:55 AM 33.8 °F 25.3 °F 28.4 °F 81% 29.92 in 10.0 mi WNW 11.5 mph - N/A   Overcast
10:15 AM 33.8 °F 23.5 °F 30.2 °F 87% 29.92 in 10.0 mi WNW 16.1 mph - N/A   Overcast
10:34 AM 33.8 °F 24.3 °F 30.2 °F 87% 29.93 in 10.0 mi NW 13.8 mph 18.4 mph N/A   Mostly Cloudy
10:55 AM 33.8 °F 22.5 °F 30.2 °F 87% 29.93 in 5.0 mi NW 19.6 mph 23.0 mph N/A Snow Light Snow
11:14 AM 33.8 °F 24.3 °F 30.2 °F 87% 29.94 in 2.5 mi WNW 13.8 mph - N/A Snow Light Snow
11:35 AM 33.8 °F 24.8 °F 32.0 °F 93% 29.94 in 4.0 mi NW 12.7 mph - N/A Snow Light Snow
11:54 AM 33.8 °F 24.3 °F 30.2 °F 87% 29.94 in 7.0 mi NW 13.8 mph - N/A Snow Light Snow
12:15 PM 32.0 °F 21.2 °F 26.6 °F 80% 29.95 in 7.0 mi NNE 16.1 mph 19.6 mph N/A Snow Light Snow
12:34 PM 28.4 °F 16.2 °F 23.0 °F 80% 29.95 in 2.5 mi NE 17.3 mph - N/A Snow Light Snow
12:55 PM 26.6 °F 16.8 °F 23.0 °F 86% 29.96 in 2.5 mi NNE 10.4 mph - N/A Snow Light Snow
1:15 PM 26.6 °F 15.7 °F 21.2 °F 80% 29.97 in 2.0 mi NNE 12.7 mph 17.3 mph N/A Snow Light Snow
1:34 PM 23.0 °F 9.2 °F 19.4 °F 86% 29.99 in 1.2 mi North 17.3 mph 23.0 mph N/A Snow Light Snow
1:55 PM 23.0 °F 9.6 °F 17.6 °F 80% 30.00 in 1.8 mi NNE 16.1 mph 24.2 mph N/A Snow Light Snow
2:15 PM 21.2 °F 6.0 °F 17.6 °F 86% 30.01 in 1.8 mi North 19.6 mph 27.6 mph N/A Snow Light Snow
2:34 PM 21.2 °F 6.8 °F 15.8 °F 80% 30.04 in 1.5 mi North 17.3 mph 27.6 mph N/A Snow Light Snow
2:55 PM 19.4 °F 2.5 °F 14.0 °F 80% 30.07 in 2.0 mi North 23.0 mph 29.9 mph N/A Snow Light Snow
3:15 PM 19.4 °F 1.8 °F 14.0 °F 80% 30.10 in 1.0 mi North 25.3 mph 32.2 mph N/A Snow Light Snow
3:34 PM 17.6 °F -1.9 °F 12.2 °F 79% 30.14 in 1.0 mi North 29.9 mph 36.8 mph N/A Snow Light Snow
3:55 PM 14.0 °F -5.8 °F 10.4 °F 86% 30.17 in 1.2 mi North 26.5 mph 35.7 mph N/A Snow Light Snow
4:15 PM 14.0 °F -5.1 °F 10.4 °F 86% 30.19 in - North 24.2 mph 33.4 mph N/A   Unknown
4:34 PM 12.2 °F -8.2 °F 8.6 °F 85% 30.22 in - North 26.5 mph 32.2 mph N/A   Unknown
4:55 PM 10.4 °F -10.3 °F 5.0 °F 79% 30.24 in - North 25.3 mph 31.1 mph N/A   Unknown
5:15 PM 8.6 °F -11.0 °F 3.2 °F 79% 30.27 in - North 20.7 mph 35.7 mph N/A   Unknown
5:34 PM 6.8 °F -14.3 °F 1.4 °F 79% 30.29 in - North 23.0 mph 34.5 mph N/A   Unknown
5:55 PM 6.8 °F -14.3 °F 1.4 °F 79% 30.31 in - North 23.0 mph 32.2 mph N/A   Overcast
6:15 PM 5.0 °F -13.0 °F -0.4 °F 78% 30.32 in - North 15.0 mph 23.0 mph N/A   Overcast
6:34 PM 5.0 °F -18.3 °F -0.4 °F 78% 30.34 in - North 27.6 mph 33.4 mph N/A   Overcast
6:55 PM 3.2 °F -15.9 °F -4.0 °F 72% 30.37 in - North 16.1 mph 34.5 mph N/A   Scattered Clouds
7:15 PM 3.2 °F -19.5 °F -4.0 °F 72% 30.38 in - North 24.2 mph 27.6 mph N/A   Clear
7:34 PM 1.4 °F -21.0 °F -5.8 °F 72% 30.40 in - North 21.9 mph 28.8 mph N/A   Clear
7:55 PM 1.4 °F -18.8 °F -7.6 °F 66% 30.41 in - North 17.3 mph 32.2 mph N/A   Scattered Clouds
8:15 PM -0.4 °F -23.3 °F -7.6 °F 72% 30.42 in - North 21.9 mph 29.9 mph N/A   Clear
8:34 PM -0.4 °F -23.3 °F -9.4 °F 66% 30.42 in - North 21.9 mph 28.8 mph N/A   Clear
8:55 PM -0.4 °F -23.3 °F -9.4 °F 66% 30.43 in - North 21.9 mph 29.9 mph N/A   Clear
9:15 PM -2.2 °F -24.7 °F -11.2 °F 66% 30.43 in - North 19.6 mph - N/A   Clear
9:34 PM -2.2 °F -24.1 °F -13.0 °F 60% 30.44 in - North 18.4 mph 26.5 mph N/A   Clear
9:55 PM -4.0 °F -25.8 °F -13.0 °F 65% 30.45 in - North 17.3 mph 20.7 mph N/A   Clear
10:15 PM -4.0 °F -25.2 °F -14.8 °F 60% 30.46 in - North 16.1 mph - N/A   Clear
10:34 PM -4.0 °F -24.5 °F -14.8 °F 60% 30.47 in - North 15.0 mph 21.9 mph N/A   Clear
10:55 PM -4.0 °F -22.1 °F -14.8 °F 60% 30.47 in - North 11.5 mph - N/A   Clear
11:14 PM -5.8 °F -26.0 °F -14.8 °F 65% 30.48 in - North 13.8 mph - N/A   Clear
11:35 PM -5.8 °F -21.2 °F -16.6 °F 60% 30.48 in 10.0 mi North 8.1 mph 18.4 mph N/A   Clear
11:54 PM -5.8 °F - -16.6 °F 60% 30.49 in 10.0 mi Calm Calm - N/A   Clear